TimeAKDT,TemperatureF,Dew PointF,Humidity,Sea Level PressureIn,VisibilityMPH,Wind Direction,Wind SpeedMPH,Gust SpeedMPH,PrecipitationIn,Events,Conditions,WindDirDegrees,DateUTC
12:53 AM,34.0,25.0,70,30.27,10.0,Calm,Calm,-,N/A,,Overcast,0,2012-10-26 08:53:00
1:53 AM,37.9,21.9,53,30.25,10.0,Calm,Calm,-,N/A,,Overcast,0,2012-10-26 09:53:00
2:53 AM,37.9,21.9,53,30.24,10.0,WNW,3.5,-,N/A,,Overcast,290,2012-10-26 10:53:00
3:53 AM,36.0,23.0,59,30.23,10.0,NW,3.5,-,N/A,,Overcast,320,2012-10-26 11:53:00
4:53 AM,37.0,26.1,65,30.23,10.0,Calm,Calm,-,N/A,,Overcast,0,2012-10-26 12:53:00
5:53 AM,37.9,21.9,53,30.22,10.0,Calm,Calm,-,N/A,,Overcast,0,2012-10-26 13:53:00
6:53 AM,37.0,26.1,65,30.22,10.0,Calm,Calm,-,N/A,,Overcast,0,2012-10-26 14:53:00
7:53 AM,36.0,26.1,67,30.21,10.0,NNW,5.8,-,N/A,,Overcast,340,2012-10-26 15:53:00
8:53 AM,37.9,26.1,62,30.20,10.0,Calm,Calm,-,N/A,,Overcast,0,2012-10-26 16:53:00
9:53 AM,39.0,26.1,60,30.20,10.0,NW,6.9,-,N/A,,Overcast,320,2012-10-26 17:53:00
10:53 AM,39.0,25.0,57,30.19,10.0,NW,5.8,-,N/A,,Overcast,310,2012-10-26 18:53:00
11:53 AM,39.9,25.0,55,30.17,10.0,WNW,6.9,-,N/A,,Overcast,300,2012-10-26 19:53:00
12:53 PM,41.0,26.1,55,30.16,10.0,WNW,6.9,-,N/A,,Mostly Cloudy,300,2012-10-26 20:53:00
1:53 PM,39.9,25.0,55,30.15,10.0,NW,8.1,-,N/A,,Scattered Clouds,310,2012-10-26 21:53:00
2:53 PM,42.1,24.1,49,30.14,10.0,NW,6.9,-,N/A,,Scattered Clouds,320,2012-10-26 22:53:00
3:53 PM,39.9,23.0,51,30.13,10.0,WNW,3.5,-,N/A,,Clear,290,2012-10-26 23:53:00
4:53 PM,37.0,24.1,59,30.11,10.0,NW,3.5,-,N/A,,Clear,310,2012-10-27 00:53:00
5:53 PM,36.0,25.0,64,30.10,10.0,NW,3.5,-,N/A,,Clear,310,2012-10-27 01:53:00
6:53 PM,34.0,26.1,73,30.10,10.0,Calm,Calm,-,N/A,,Clear,0,2012-10-27 02:53:00
7:53 PM,32.0,25.0,75,30.10,10.0,NNW,4.6,-,N/A,,Clear,330,2012-10-27 03:53:00
8:53 PM,30.9,26.1,82,30.09,10.0,NW,3.5,-,N/A,,Clear,310,2012-10-27 04:53:00
9:53 PM,28.9,26.1,89,30.06,10.0,Calm,Calm,-,N/A,,Clear,0,2012-10-27 05:53:00
10:53 PM,30.0,27.0,88,30.04,10.0,Calm,Calm,-,N/A,,Clear,0,2012-10-27 06:53:00
11:53 PM,27.0,23.0,85,30.04,10.0,Calm,Calm,-,N/A,,Clear,0,2012-10-27 07:53:00